Location: Red Deer
(52.2681°N, 113.8112°W)
Time: 02:54:46
(UTC-07:00)

BlueWalker 3 - Pass Details

Date: 07 December 2022
Orbit: 499 x 517 km, 53.2° (Epoch: 29 January)

Event Time Altitude Azimuth Distance (km) Brightness Sun altitude
Rises 16:55:18 0° 277° (W) 2,635 6.5 -4.9°
Reaches altitude 10° 16:57:30 10° 278° (W) 1,744 5.5 -5.2°
Maximum altitude 17:01:28 78° 5° (N) 529 2.0 -5.7°
Drops below altitude 10° 17:05:23 10° 93° (E) 1,729 4.2 -6.2°
Enters shadow 17:06:42 - 94° (E) 2,256 4.7 -6.4°
